Location: Newark
(11.0000°N, 122.6717°E)
Time: 19:52:46
(UTC+00:00)

STARLINK 1050 - Pass Details

Date: 17 December 2019
Orbit: 548 x 551 km, 53.0° (Epoch: 17 January)

Event Time Altitude Azimuth Distance (km) Brightness Sun altitude
Rises 10:33:14 0° 226° (SW) 2,701 8.5 -15.2°
Reaches altitude 10° 10:35:31 10° 232° (SW) 1,809 7.5 -15.8°
Maximum altitude 10:39:28 46° 306° (NW) 735 4.4 -16.7°
Enters shadow 10:42:09 19° 13° (NNE) 1,348 5.3 -17.3°
